| time (UTC) | temp F | wind direction | speed knots | gust knots | rain 1hr in | rain 24hr in | rain mn in | humidity % | barometer mb |
| 20260509160554 | 78 | 0 | 0.0 | 4.3 | 0.00 | 0.00 | 0.00 | 20 | 1018.7 |
| 20260509160100 | 78 | 0 | 0.0 | 4.3 | 0.00 | 0.00 | 0.00 | 20 | 1018.7 |
| 20260509155556 | 78 | 0 | 0.0 | 5.2 | 0.00 | 0.00 | 0.00 | 21 | 1018.7 |
| 20260509155055 | 78 | 0 | 0.0 | 5.2 | 0.00 | 0.00 | 0.00 | 21 | 1018.7 |
| 20260509154612 | 78 | 0 | 0.0 | 5.2 | 0.00 | 0.00 | 0.00 | 22 | 1018.7 |
| 20260509154056 | 78 | 0 | 0.0 | 3.5 | 0.00 | 0.00 | 0.00 | 22 | 1018.8 |
| 20260509153559 | 78 | 50 | 0.0 | 4.3 | 0.00 | 0.00 | 0.00 | 23 | 1018.7 |
| 20260509153107 | 78 | 0 | 0.9 | 4.3 | 0.00 | 0.00 | 0.00 | 23 | 1018.7 |
| 20260509152555 | 77 | 0 | 0.0 | 5.2 | 0.00 | 0.00 | 0.00 | 22 | 1018.7 |
| 20260509152057 | 77 | 0 | 0.9 | 5.2 | 0.00 | 0.00 | 0.00 | 21 | 1018.6 |
| 20260509151602 | 77 | 0 | 1.7 | 6.1 | 0.00 | 0.00 | 0.00 | 22 | 1018.7 |
| 20260509151054 | 76 | 98 | 0.9 | 6.1 | 0.00 | 0.00 | 0.00 | 23 | 1018.7 |
| 20260509150557 | 76 | 96 | 1.7 | 6.1 | 0.00 | 0.00 | 0.00 | 23 | 1018.7 |
| 20260509150056 | 75 | 0 | 0.9 | 5.2 | 0.00 | 0.00 | 0.00 | 23 | 1018.7 |
| 20260509145555 | 75 | 0 | 1.7 | 5.2 | 0.00 | 0.00 | 0.00 | 23 | 1018.7 |
| 20260509145055 | 75 | 98 | 1.7 | 5.2 | 0.00 | 0.00 | 0.00 | 23 | 1018.7 |
| 20260509144556 | 74 | 113 | 1.7 | 6.1 | 0.00 | 0.00 | 0.00 | 25 | 1018.7 |
| 20260509144054 | 74 | 103 | 0.9 | 6.1 | 0.00 | 0.00 | 0.00 | 25 | 1018.8 |
| 20260509143556 | 74 | 100 | 3.5 | 6.1 | 0.00 | 0.00 | 0.00 | 25 | 1018.7 |
| 20260509143110 | 74 | 130 | 0.9 | 6.1 | 0.00 | 0.00 | 0.00 | 25 | 1018.7 |
| 20260509142554 | 73 | 115 | 2.6 | 5.2 | 0.00 | 0.00 | 0.00 | 26 | 1018.7 |
| 20260509142054 | 73 | 140 | 1.7 | 6.1 | 0.00 | 0.00 | 0.00 | 26 | 1018.7 |
| 20260509141557 | 72 | 0 | 3.5 | 6.1 | 0.00 | 0.00 | 0.00 | 26 | 1018.5 |
| 20260509141055 | 72 | 122 | 1.7 | 5.2 | 0.00 | 0.00 | 0.00 | 26 | 1018.6 |
| 20260509140554 | 71 | 135 | 0.0 | 4.3 | 0.00 | 0.00 | 0.00 | 26 | 1018.6 |
| 20260509140057 | 70 | 0 | 0.0 | 0.0 | 0.00 | 0.00 | 0.00 | 28 | 1018.6 |
| 20260509135557 | 69 | 0 | 0.0 | 0.0 | 0.00 | 0.00 | 0.00 | 30 | 1018.5 |
| 20260509135054 | 68 | 0 | 0.0 | 0.0 | 0.00 | 0.00 | 0.00 | 33 | 1018.5 |
| 20260509134558 | 66 | 0 | 0.0 | 0.0 | 0.00 | 0.00 | 0.00 | 36 | 1018.5 |
| 20260509134055 | 65 | 0 | 0.0 | 0.0 | 0.00 | 0.00 | 0.00 | 38 | 1018.4 |
| 20260509133554 | 64 | 0 | 0.0 | 0.0 | 0.00 | 0.00 | 0.00 | 38 | 1018.4 |
| 20260509133106 | 62 | 0 | 0.0 | 0.0 | 0.00 | 0.00 | 0.00 | 39 | 1018.3 |
| 20260509132555 | 61 | 0 | 0.0 | 0.0 | 0.00 | 0.00 | 0.00 | 42 | 1018.3 |
| 20260509132054 | 60 | 0 | 0.0 | 0.0 | 0.00 | 0.00 | 0.00 | 43 | 1018.3 |
| 20260509131557 | 59 | 0 | 0.0 | 0.0 | 0.00 | 0.00 | 0.00 | 43 | 1018.2 |
| 20260509131054 | 58 | 0 | 0.0 | 0.0 | 0.00 | 0.00 | 0.00 | 46 | 1018.2 |
| 20260509130554 | 57 | 0 | 0.0 | 0.0 | 0.00 | 0.00 | 0.00 | 45 | 1018.2 |
| 20260509130114 | 57 | 0 | 0.0 | 0.0 | 0.00 | 0.00 | 0.00 | 45 | 1018.2 |
| 20260509125557 | 58 | 0 | 0.0 | 5.2 | 0.00 | 0.00 | 0.00 | 42 | 1018.1 |
| 20260509125056 | 60 | 0 | 0.9 | 5.2 | 0.00 | 0.00 | 0.00 | 39 | 1018.1 |
| 20260509124558 | 60 | 0 | 1.7 | 5.2 | 0.00 | 0.00 | 0.00 | 37 | 1017.9 |
| 20260509124057 | 59 | 181 | 1.7 | 5.2 | 0.00 | 0.00 | 0.00 | 38 | 1017.8 |
| 20260509123557 | 60 | 0 | 0.0 | 5.2 | 0.00 | 0.00 | 0.00 | 38 | 1017.9 |
| 20260509123056 | 59 | 0 | 0.0 | 5.2 | 0.00 | 0.00 | 0.00 | 38 | 1017.7 |
| 20260509122554 | 59 | 0 | 3.5 | 5.2 | 0.00 | 0.00 | 0.00 | 38 | 1017.7 |
| 20260509122054 | 58 | 0 | 0.0 | 5.2 | 0.00 | 0.00 | 0.00 | 41 | 1017.7 |
| 20260509121556 | 59 | 0 | 1.7 | 5.2 | 0.00 | 0.00 | 0.00 | 39 | 1017.7 |
| 20260509121059 | 60 | 0 | 0.0 | 0.9 | 0.00 | 0.00 | 0.00 | 37 | 1017.6 |
| 20260509120555 | 60 | 0 | 0.0 | 4.3 | 0.00 | 0.00 | 0.00 | 35 | 1017.4 |
| 20260509120059 | 59 | 0 | 0.0 | 5.2 | 0.00 | 0.00 | 0.00 | 38 | 1017.5 |
| 20260509115556 | 59 | 176 | 0.0 | 5.2 | 0.00 | 0.00 | 0.00 | 37 | 1017.5 |
| 20260509115054 | 59 | 0 | 0.0 | 2.6 | 0.00 | 0.00 | 0.00 | 37 | 1017.4 |
| 20260509114555 | 60 | 0 | 0.0 | 2.6 | 0.00 | 0.00 | 0.00 | 38 | 1017.4 |
| 20260509114058 | 58 | 0 | 0.0 | 0.0 | 0.00 | 0.00 | 0.00 | 38 | 1017.4 |
| 20260509113557 | 56 | 0 | 0.0 | 0.0 | 0.00 | 0.00 | 0.00 | 41 | 1017.4 |
| 20260509113058 | 56 | 0 | 0.0 | 0.0 | 0.00 | 0.00 | 0.00 | 43 | 1017.4 |
| 20260509112554 | 57 | 0 | 0.0 | 0.0 | 0.00 | 0.00 | 0.00 | 42 | 1017.3 |
| 20260509112055 | 57 | 0 | 0.0 | 0.0 | 0.00 | 0.00 | 0.00 | 42 | 1017.4 |
| 20260509111558 | 58 | 0 | 0.0 | 0.0 | 0.00 | 0.00 | 0.00 | 40 | 1017.3 |
| 20260509111055 | 59 | 0 | 0.0 | 0.0 | 0.00 | 0.00 | 0.00 | 39 | 1017.4 |
| 20260509110556 | 60 | 0 | 0.0 | 0.0 | 0.00 | 0.00 | 0.00 | 38 | 1017.4 |
| 20260509110055 | 61 | 0 | 0.0 | 0.0 | 0.00 | 0.00 | 0.00 | 36 | 1017.4 |
| 20260509105556 | 61 | 0 | 0.0 | 0.0 | 0.00 | 0.00 | 0.00 | 35 | 1017.4 |
| 20260509105055 | 62 | 0 | 0.0 | 0.0 | 0.00 | 0.00 | 0.00 | 33 | 1017.4 |
| 20260509104609 | 62 | 0 | 0.0 | 0.0 | 0.00 | 0.00 | 0.00 | 34 | 1017.4 |
| 20260509104059 | 61 | 0 | 0.0 | 0.0 | 0.00 | 0.00 | 0.00 | 34 | 1017.3 |
| 20260509103554 | 60 | 0 | 0.0 | 0.0 | 0.00 | 0.00 | 0.00 | 38 | 1017.3 |
| 20260509103110 | 58 | 0 | 0.0 | 0.0 | 0.00 | 0.00 | 0.00 | 39 | 1017.3 |
| 20260509102554 | 57 | 0 | 0.0 | 0.0 | 0.00 | 0.00 | 0.00 | 44 | 1017.3 |
| 20260509102055 | 57 | 0 | 0.0 | 0.0 | 0.00 | 0.00 | 0.00 | 43 | 1017.3 |
| 20260509101558 | 57 | 0 | 0.0 | 0.0 | 0.00 | 0.00 | 0.00 | 43 | 1017.3 |
| 20260509101054 | 58 | 0 | 0.0 | 0.0 | 0.00 | 0.00 | 0.00 | 41 | 1017.4 |
| 20260509100555 | 59 | 0 | 0.0 | 0.0 | 0.00 | 0.00 | 0.00 | 39 | 1017.4 |
| 20260509100100 | 59 | 0 | 0.0 | 0.0 | 0.00 | 0.00 | 0.00 | 38 | 1017.4 |
| 20260509095555 | 59 | 0 | 0.0 | 0.0 | 0.00 | 0.00 | 0.00 | 39 | 1017.4 |
| 20260509095055 | 59 | 0 | 0.0 | 0.0 | 0.00 | 0.00 | 0.00 | 39 | 1017.4 |
| 20260509094558 | 59 | 0 | 0.0 | 0.0 | 0.00 | 0.00 | 0.00 | 40 | 1017.4 |
| 20260509094056 | 58 | 0 | 0.0 | 0.0 | 0.00 | 0.00 | 0.00 | 40 | 1017.4 |
| 20260509093555 | 58 | 0 | 0.0 | 0.0 | 0.00 | 0.00 | 0.00 | 41 | 1017.5 |
| 20260509093103 | 58 | 0 | 0.0 | 0.0 | 0.00 | 0.00 | 0.00 | 40 | 1017.4 |
| 20260509092554 | 58 | 0 | 0.0 | 0.0 | 0.00 | 0.00 | 0.00 | 41 | 1017.5 |
| 20260509092056 | 58 | 0 | 0.0 | 0.0 | 0.00 | 0.00 | 0.00 | 40 | 1017.5 |
| 20260509091607 | 58 | 0 | 0.0 | 0.0 | 0.00 | 0.00 | 0.00 | 38 | 1017.5 |
| 20260509091054 | 59 | 0 | 0.0 | 0.0 | 0.00 | 0.00 | 0.00 | 39 | 1017.5 |
| 20260509090554 | 60 | 0 | 0.0 | 0.0 | 0.00 | 0.00 | 0.00 | 39 | 1017.6 |
| 20260509090059 | 60 | 0 | 0.0 | 0.0 | 0.00 | 0.00 | 0.00 | 38 | 1017.6 |
| 20260509085556 | 59 | 0 | 0.0 | 0.0 | 0.00 | 0.00 | 0.00 | 38 | 1017.6 |
| 20260509085055 | 59 | 0 | 0.0 | 0.0 | 0.00 | 0.00 | 0.00 | 39 | 1017.5 |
| 20260509084608 | 59 | 0 | 0.0 | 0.0 | 0.00 | 0.00 | 0.00 | 40 | 1017.5 |
| 20260509084054 | 61 | 0 | 0.0 | 0.0 | 0.00 | 0.00 | 0.00 | 38 | 1017.3 |
| 20260509083555 | 62 | 0 | 0.0 | 0.0 | 0.00 | 0.00 | 0.00 | 33 | 1017.3 |
| 20260509083059 | 63 | 0 | 0.0 | 0.0 | 0.00 | 0.00 | 0.00 | 33 | 1017.3 |
| 20260509082554 | 63 | 0 | 0.0 | 0.0 | 0.00 | 0.00 | 0.00 | 32 | 1017.3 |
| 20260509082055 | 65 | 0 | 0.0 | 0.0 | 0.00 | 0.00 | 0.00 | 30 | 1017.3 |
| 20260509081600 | 66 | 0 | 0.0 | 0.0 | 0.00 | 0.00 | 0.00 | 29 | 1017.4 |
| 20260509081055 | 66 | 0 | 0.0 | 0.0 | 0.00 | 0.00 | 0.00 | 28 | 1017.2 |
| 20260509080554 | 66 | 0 | 0.0 | 0.0 | 0.00 | 0.00 | 0.00 | 28 | 1017.3 |
| 20260509080059 | 66 | 0 | 0.0 | 0.0 | 0.00 | 0.00 | 0.00 | 29 | 1017.2 |
| 20260509075555 | 65 | 0 | 0.0 | 0.0 | 0.00 | 0.00 | 0.00 | 31 | 1017.2 |
| 20260509075055 | 66 | 0 | 0.0 | 0.0 | 0.00 | 0.00 | 0.00 | 31 | 1017.4 |
| 20260509074558 | 66 | 0 | 0.0 | 0.0 | 0.00 | 0.00 | 0.00 | 30 | 1017.4 |
| 20260509074054 | 66 | 0 | 0.0 | 0.0 | 0.00 | 0.00 | 0.00 | 29 | 1017.4 |
| 20260509073555 | 66 | 0 | 0.0 | 0.0 | 0.00 | 0.00 | 0.00 | 30 | 1017.4 |
| 20260509073100 | 67 | 0 | 0.0 | 0.0 | 0.00 | 0.00 | 0.00 | 28 | 1017.3 |
| 20260509072556 | 67 | 0 | 0.0 | 0.0 | 0.00 | 0.00 | 0.00 | 28 | 1017.4 |
| 20260509072055 | 67 | 0 | 0.0 | 0.0 | 0.00 | 0.00 | 0.00 | 28 | 1017.5 |
| 20260509071600 | 67 | 0 | 0.0 | 0.0 | 0.00 | 0.00 | 0.00 | 28 | 1017.5 |
| 20260509071055 | 67 | 0 | 0.0 | 0.0 | 0.00 | 0.00 | 0.00 | 29 | 1017.5 |
| 20260509070606 | 67 | 0 | 0.0 | 0.0 | 0.00 | 0.00 | 0.00 | 28 | 1017.6 |
| 20260509070105 | 66 | 0 | 0.0 | 0.0 | 0.00 | 0.00 | 0.00 | 28 | 1017.5 |
| 20260509065556 | 66 | 0 | 0.0 | 0.0 | 0.00 | 0.00 | 0.00 | 28 | 1017.6 |
| 20260509065054 | 66 | 0 | 0.0 | 0.0 | 0.00 | 0.00 | 0.00 | 29 | 1017.6 |
| 20260509064602 | 67 | 0 | 0.0 | 0.0 | 0.00 | 0.00 | 0.00 | 29 | 1017.6 |
| 20260509064057 | 67 | 0 | 0.0 | 0.0 | 0.00 | 0.00 | 0.00 | 28 | 1017.6 |
| 20260509063556 | 67 | 0 | 0.0 | 0.0 | 0.00 | 0.00 | 0.00 | 29 | 1017.6 |
| 20260509063111 | 69 | 0 | 0.0 | 0.0 | 0.00 | 0.00 | 0.00 | 28 | 1017.6 |
| 20260509062554 | 70 | 0 | 0.0 | 4.3 | 0.00 | 0.00 | 0.00 | 25 | 1017.5 |
| 20260509062055 | 70 | 0 | 0.9 | 4.3 | 0.00 | 0.00 | 0.00 | 24 | 1017.6 |
| 20260509061617 | 71 | 303 | 0.9 | 6.1 | 0.00 | 0.00 | 0.00 | 24 | 1017.6 |
| 20260509061055 | 71 | 289 | 2.6 | 7.0 | 0.00 | 0.00 | 0.00 | 23 | 1017.6 |
| 20260509060555 | 71 | 300 | 3.5 | 7.8 | 0.00 | 0.00 | 0.00 | 23 | 1017.6 |
| 20260509060059 | 69 | 304 | 3.5 | 7.8 | 0.00 | 0.00 | 0.00 | 24 | 1017.5 |
| 20260509055555 | 68 | 295 | 3.5 | 6.1 | 0.00 | 0.00 | 0.00 | 26 | 1017.5 |
| 20260509055054 | 67 | 288 | 0.0 | 4.3 | 0.00 | 0.00 | 0.00 | 28 | 1017.5 |
| 20260509054554 | 67 | 0 | 0.0 | 4.3 | 0.00 | 0.00 | 0.00 | 28 | 1017.4 |
| 20260509054055 | 68 | 289 | 0.0 | 1.7 | 0.00 | 0.00 | 0.00 | 28 | 1017.4 |
| 20260509053556 | 68 | 0 | 0.0 | 2.6 | 0.00 | 0.00 | 0.00 | 27 | 1017.5 |
| 20260509053055 | 68 | 0 | 0.0 | 2.6 | 0.00 | 0.00 | 0.00 | 27 | 1017.6 |
| 20260509052556 | 68 | 0 | 0.0 | 4.3 | 0.00 | 0.00 | 0.00 | 27 | 1017.6 |
| 20260509052054 | 68 | 0 | 0.0 | 4.3 | 0.00 | 0.00 | 0.00 | 27 | 1017.5 |
| 20260509051559 | 68 | 0 | 0.0 | 4.3 | 0.00 | 0.00 | 0.00 | 27 | 1017.5 |
| 20260509051055 | 68 | 0 | 0.0 | 2.6 | 0.00 | 0.00 | 0.00 | 27 | 1017.6 |
| 20260509050553 | 68 | 0 | 0.0 | 0.9 | 0.00 | 0.00 | 0.00 | 27 | 1017.6 |
| 20260509050054 | 68 | 0 | 0.0 | 0.9 | 0.00 | 0.00 | 0.00 | 25 | 1017.6 |
| 20260509045555 | 69 | 0 | 0.0 | 5.2 | 0.00 | 0.00 | 0.00 | 25 | 1017.6 |
| 20260509045055 | 69 | 0 | 0.0 | 5.2 | 0.00 | 0.00 | 0.00 | 26 | 1017.6 |
| 20260509044553 | 69 | 0 | 0.0 | 0.9 | 0.00 | 0.00 | 0.00 | 25 | 1017.5 |
| 20260509044056 | 69 | 0 | 0.0 | 3.5 | 0.00 | 0.00 | 0.00 | 24 | 1017.6 |
| 20260509043555 | 69 | 0 | 0.0 | 3.5 | 0.00 | 0.00 | 0.00 | 25 | 1017.4 |
| 20260509043057 | 69 | 0 | 0.0 | 2.6 | 0.00 | 0.00 | 0.00 | 25 | 1017.5 |
| 20260509042555 | 69 | 0 | 0.0 | 2.6 | 0.00 | 0.00 | 0.00 | 25 | 1017.3 |
| 20260509042057 | 69 | 0 | 0.0 | 0.9 | 0.00 | 0.00 | 0.00 | 25 | 1017.4 |
| 20260509041556 | 69 | 0 | 0.0 | 0.0 | 0.00 | 0.00 | 0.00 | 24 | 1017.4 |
| 20260509041055 | 70 | 0 | 0.0 | 0.0 | 0.00 | 0.00 | 0.00 | 23 | 1017.4 |
| 20260509040554 | 71 | 0 | 0.0 | 0.0 | 0.00 | 0.00 | 0.00 | 21 | 1017.4 |
| 20260509040055 | 71 | 0 | 0.0 | 0.0 | 0.00 | 0.00 | 0.00 | 20 | 1017.3 |
| 20260509035555 | 72 | 0 | 0.0 | 0.0 | 0.00 | 0.00 | 0.00 | 20 | 1017.3 |
| 20260509035056 | 72 | 0 | 0.0 | 0.9 | 0.00 | 0.00 | 0.00 | 19 | 1017.1 |
| 20260509034554 | 73 | 0 | 0.0 | 3.5 | 0.00 | 0.00 | 0.00 | 19 | 1017.0 |
| 20260509034054 | 73 | 0 | 0.0 | 3.5 | 0.00 | 0.00 | 0.00 | 19 | 1016.8 |
| 20260509033555 | 74 | 0 | 0.0 | 3.5 | 0.00 | 0.00 | 0.00 | 19 | 1016.9 |
| 20260509033055 | 74 | 0 | 0.0 | 2.6 | 0.00 | 0.00 | 0.00 | 18 | 1016.8 |
| 20260509032555 | 74 | 0 | 0.0 | 2.6 | 0.00 | 0.00 | 0.00 | 18 | 1016.7 |
| 20260509032054 | 74 | 0 | 0.0 | 4.3 | 0.00 | 0.00 | 0.00 | 18 | 1016.7 |
| 20260509031559 | 74 | 0 | 0.0 | 4.3 | 0.00 | 0.00 | 0.00 | 18 | 1016.6 |
| 20260509031055 | 74 | 0 | 0.0 | 6.1 | 0.00 | 0.00 | 0.00 | 18 | 1016.7 |
| 20260509030555 | 74 | 0 | 0.0 | 6.1 | 0.00 | 0.00 | 0.00 | 18 | 1016.5 |
| 20260509030056 | 74 | 0 | 0.0 | 6.1 | 0.00 | 0.00 | 0.00 | 18 | 1016.4 |
| 20260509025557 | 75 | 0 | 0.0 | 5.2 | 0.00 | 0.00 | 0.00 | 18 | 1016.3 |
| 20260509025054 | 75 | 0 | 0.0 | 5.2 | 0.00 | 0.00 | 0.00 | 18 | 1016.4 |
| 20260509024553 | 75 | 0 | 0.0 | 1.7 | 0.00 | 0.00 | 0.00 | 17 | 1016.3 |
| 20260509024056 | 75 | 0 | 0.0 | 1.7 | 0.00 | 0.00 | 0.00 | 17 | 1016.3 |
| 20260509023557 | 76 | 0 | 0.0 | 3.5 | 0.00 | 0.00 | 0.00 | 17 | 1016.2 |
| 20260509023054 | 76 | 0 | 0.0 | 3.5 | 0.00 | 0.00 | 0.00 | 17 | 1016.1 |
| 20260509022554 | 76 | 0 | 0.0 | 5.2 | 0.00 | 0.00 | 0.00 | 17 | 1015.9 |
| 20260509022054 | 77 | 0 | 0.0 | 5.2 | 0.00 | 0.00 | 0.00 | 16 | 1015.9 |
| 20260509021555 | 77 | 0 | 0.0 | 2.6 | 0.00 | 0.00 | 0.00 | 16 | 1015.8 |
| 20260509021055 | 77 | 0 | 0.0 | 3.5 | 0.00 | 0.00 | 0.00 | 16 | 1015.8 |
| 20260509020555 | 78 | 0 | 0.0 | 3.5 | 0.00 | 0.00 | 0.00 | 16 | 1015.8 |
| 20260509020058 | 78 | 0 | 0.0 | 4.3 | 0.00 | 0.00 | 0.00 | 16 | 1015.7 |
| 20260509015555 | 79 | 0 | 0.0 | 4.3 | 0.00 | 0.00 | 0.00 | 16 | 1015.7 |
| 20260509015057 | 79 | 0 | 0.0 | 5.2 | 0.00 | 0.00 | 0.00 | 16 | 1015.7 |
| 20260509014553 | 80 | 0 | 0.0 | 8.7 | 0.00 | 0.00 | 0.00 | 15 | 1015.7 |
| 20260509014056 | 81 | 246 | 0.0 | 8.7 | 0.00 | 0.00 | 0.00 | 15 | 1015.5 |
| 20260509013555 | 81 | 0 | 1.7 | 7.8 | 0.00 | 0.00 | 0.00 | 15 | 1015.6 |
| 20260509013057 | 82 | 0 | 0.9 | 7.8 | 0.00 | 0.00 | 0.00 | 15 | 1015.5 |
| 20260509012556 | 82 | 275 | 0.0 | 7.8 | 0.00 | 0.00 | 0.00 | 15 | 1015.6 |
| 20260509012055 | 83 | 0 | 0.0 | 12.2 | 0.00 | 0.00 | 0.00 | 15 | 1015.5 |
| 20260509011556 | 83 | 0 | 1.7 | 12.2 | 0.00 | 0.00 | 0.00 | 14 | 1015.6 |
| 20260509011054 | 83 | 212 | 7.0 | 12.2 | 0.00 | 0.00 | 0.00 | 14 | 1015.6 |
| 20260509010554 | 83 | 312 | 7.0 | 13.9 | 0.00 | 0.00 | 0.00 | 14 | 1015.5 |
| 20260509010055 | 84 | 319 | 7.0 | 13.9 | 0.00 | 0.00 | 0.00 | 13 | 1015.4 |
| 20260509005554 | 84 | 303 | 4.3 | 9.6 | 0.00 | 0.00 | 0.00 | 13 | 1015.5 |
| 20260509005055 | 85 | 302 | 3.5 | 9.6 | 0.00 | 0.00 | 0.00 | 13 | 1015.5 |
| 20260509004606 | 85 | 268 | 0.9 | 9.6 | 0.00 | 0.00 | 0.00 | 13 | 1015.5 |
| 20260509004055 | 85 | 256 | 6.1 | 9.6 | 0.00 | 0.00 | 0.00 | 13 | 1015.5 |
| 20260509003555 | 86 | 293 | 2.6 | 7.8 | 0.00 | 0.00 | 0.00 | 13 | 1015.4 |
| 20260509003058 | 86 | 0 | 1.7 | 7.8 | 0.00 | 0.00 | 0.00 | 13 | 1015.5 |
| 20260509002554 | 86 | 231 | 0.9 | 5.2 | 0.00 | 0.00 | 0.00 | 13 | 1015.5 |
| 20260509002055 | 86 | 0 | 0.0 | 7.0 | 0.00 | 0.00 | 0.00 | 13 | 1015.4 |
| 20260509001556 | 86 | 0 | 0.9 | 7.0 | 0.00 | 0.00 | 0.00 | 13 | 1015.4 |
| 20260509001054 | 86 | 0 | 0.9 | 9.6 | 0.00 | 0.00 | 0.00 | 13 | 1015.4 |
| 20260509000555 | 86 | 0 | 0.9 | 9.6 | 0.00 | 0.00 | 0.00 | 13 | 1015.4 |
| 20260509000058 | 86 | 0 | 1.7 | 7.0 | 0.00 | 0.00 | 0.00 | 13 | 1015.4 |
| 20260508235553 | 86 | 244 | 0.9 | 9.6 | 0.00 | 0.00 | 0.00 | 12 | 1015.4 |
| 20260508235056 | 87 | 0 | 0.0 | 13.0 | 0.00 | 0.00 | 0.00 | 13 | 1015.4 |
| 20260508234556 | 86 | 230 | 1.7 | 13.0 | 0.00 | 0.00 | 0.00 | 13 | 1015.5 |
| 20260508234055 | 86 | 286 | 5.2 | 13.0 | 0.00 | 0.00 | 0.00 | 12 | 1015.6 |
| 20260508233554 | 86 | 0 | 1.7 | 7.8 | 0.00 | 0.00 | 0.00 | 13 | 1015.5 |
| 20260508233055 | 86 | 0 | 0.0 | 11.3 | 0.00 | 0.00 | 0.00 | 12 | 1015.5 |
| 20260508232555 | 86 | 307 | 1.7 | 14.8 | 0.00 | 0.00 | 0.00 | 12 | 1015.6 |
| 20260508232054 | 86 | 0 | 7.0 | 14.8 | 0.00 | 0.00 | 0.00 | 11 | 1015.5 |
| 20260508231603 | 86 | 305 | 1.7 | 7.8 | 0.00 | 0.00 | 0.00 | 12 | 1015.7 |
| 20260508231054 | 86 | 0 | 2.6 | 13.9 | 0.00 | 0.00 | 0.00 | 11 | 1015.7 |
| 20260508230555 | 87 | 312 | 5.2 | 13.9 | 0.00 | 0.00 | 0.00 | 10 | 1015.6 |
| 20260508230100 | 86 | 299 | 5.2 | 13.9 | 0.00 | 0.00 | 0.00 | 11 | 1015.6 |
| 20260508225555 | 86 | 339 | 1.7 | 8.7 | 0.00 | 0.00 | 0.00 | 12 | 1015.6 |
| 20260508225055 | 86 | 299 | 3.5 | 9.6 | 0.00 | 0.00 | 0.00 | 12 | 1015.6 |
| 20260508224558 | 86 | 352 | 0.9 | 11.3 | 0.00 | 0.00 | 0.00 | 11 | 1015.6 |
| 20260508224055 | 86 | 1 | 3.5 | 14.8 | 0.00 | 0.00 | 0.00 | 11 | 1015.7 |
| 20260508223557 | 86 | 2 | 6.1 | 14.8 | 0.00 | 0.00 | 0.00 | 11 | 1015.7 |
| 20260508223054 | 86 | 294 | 8.7 | 14.8 | 0.00 | 0.00 | 0.00 | 11 | 1015.8 |
| 20260508222554 | 87 | 300 | 1.7 | 9.6 | 0.00 | 0.00 | 0.00 | 12 | 1015.8 |
| 20260508222054 | 86 | 266 | 3.5 | 9.6 | 0.00 | 0.00 | 0.00 | 13 | 1015.8 |
| 20260508221559 | 86 | 330 | 3.5 | 13.9 | 0.00 | 0.00 | 0.00 | 11 | 1015.9 |
| 20260508221056 | 87 | 336 | 7.8 | 13.9 | 0.00 | 0.00 | 0.00 | 12 | 1016.0 |
| 20260508220555 | 87 | 216 | 0.0 | 14.8 | 0.00 | 0.00 | 0.00 | 12 | 1016.0 |
| 20260508220054 | 87 | 0 | 0.9 | 14.8 | 0.00 | 0.00 | 0.00 | 13 | 1016.0 |
| 20260508215555 | 87 | 312 | 7.0 | 14.8 | 0.00 | 0.00 | 0.00 | 13 | 1016.1 |
| 20260508215055 | 86 | 272 | 0.9 | 7.8 | 0.00 | 0.00 | 0.00 | 14 | 1016.1 |
| 20260508214600 | 85 | 14 | 0.9 | 7.8 | 0.00 | 0.00 | 0.00 | 12 | 1016.1 |
| 20260508214055 | 85 | 0 | 0.0 | 6.1 | 0.00 | 0.00 | 0.00 | 13 | 1016.3 |
| 20260508213555 | 85 | 0 | 0.0 | 7.0 | 0.00 | 0.00 | 0.00 | 14 | 1016.4 |
| 20260508213058 | 84 | 0 | 0.0 | 7.0 | 0.00 | 0.00 | 0.00 | 13 | 1016.4 |
| 20260508212555 | 84 | 360 | 1.7 | 10.4 | 0.00 | 0.00 | 0.00 | 14 | 1016.5 |
| 20260508212051 | 84 | 0 | 1.7 | 10.4 | 0.00 | 0.00 | 0.00 | 13 | 1016.5 |
| 20260508211559 | 84 | 333 | 5.2 | 10.4 | 0.00 | 0.00 | 0.00 | 14 | 1016.7 |
| 20260508211055 | 84 | 1 | 0.0 | 7.8 | 0.00 | 0.00 | 0.00 | 15 | 1016.6 |
| 20260508210556 | 84 | 0 | 0.0 | 7.8 | 0.00 | 0.00 | 0.00 | 13 | 1016.8 |
| 20260508205559 | 85 | 359 | 4.3 | 12.2 | 0.00 | 0.00 | 0.00 | 14 | 1017.0 |
| 20260508205054 | 85 | 1 | 6.1 | 12.2 | 0.00 | 0.00 | 0.00 | 14 | 1017.1 |
| 20260508204557 | 85 | 354 | 2.6 | 10.4 | 0.00 | 0.00 | 0.00 | 13 | 1017.0 |
| 20260508204055 | 85 | 266 | 0.9 | 6.1 | 0.00 | 0.00 | 0.00 | 15 | 1017.0 |
| 20260508203555 | 84 | 0 | 0.0 | 12.2 | 0.00 | 0.00 | 0.00 | 14 | 1017.1 |
| 20260508203101 | 84 | 0 | 0.9 | 12.2 | 0.00 | 0.00 | 0.00 | 14 | 1017.2 |
| 20260508202552 | 84 | 320 | 2.6 | 9.6 | 0.00 | 0.00 | 0.00 | 14 | 1017.3 |
| 20260508202055 | 84 | 0 | 2.6 | 9.6 | 0.00 | 0.00 | 0.00 | 13 | 1017.3 |
| 20260508201602 | 84 | 359 | 2.6 | 12.2 | 0.00 | 0.00 | 0.00 | 13 | 1017.3 |
| 20260508201052 | 85 | 273 | 3.5 | 12.2 | 0.00 | 0.00 | 0.00 | 14 | 1017.4 |
| 20260508200556 | 84 | 250 | 3.5 | 10.4 | 0.00 | 0.00 | 0.00 | 14 | 1017.4 |
| 20260508200057 | 85 | 335 | 0.9 | 8.7 | 0.00 | 0.00 | 0.00 | 13 | 1017.5 |
| 20260508195555 | 84 | 305 | 0.0 | 10.4 | 0.00 | 0.00 | 0.00 | 15 | 1017.6 |
| 20260508195055 | 83 | 0 | 0.0 | 10.4 | 0.00 | 0.00 | 0.00 | 14 | 1017.6 |
| 20260508194553 | 83 | 310 | 5.2 | 10.4 | 0.00 | 0.00 | 0.00 | 14 | 1017.7 |
| 20260508194052 | 83 | 307 | 0.9 | 13.9 | 0.00 | 0.00 | 0.00 | 14 | 1017.6 |
| 20260508193555 | 83 | 261 | 4.3 | 13.9 | 0.00 | 0.00 | 0.00 | 15 | 1017.7 |
| 20260508193057 | 83 | 315 | 7.0 | 13.9 | 0.00 | 0.00 | 0.00 | 14 | 1017.7 |
| 20260508192555 | 83 | 293 | 2.6 | 12.2 | 0.00 | 0.00 | 0.00 | 15 | 1017.7 |
| 20260508192056 | 82 | 295 | 3.5 | 13.0 | 0.00 | 0.00 | 0.00 | 15 | 1017.8 |
| 20260508191553 | 82 | 342 | 7.0 | 13.0 | 0.00 | 0.00 | 0.00 | 14 | 1018.0 |
| 20260508191055 | 83 | 312 | 7.8 | 13.0 | 0.00 | 0.00 | 0.00 | 15 | 1018.1 |
| 20260508190555 | 83 | 309 | 4.3 | 13.0 | 0.00 | 0.00 | 0.00 | 15 | 1018.0 |
| 20260508190054 | 82 | 291 | 4.3 | 12.2 | 0.00 | 0.00 | 0.00 | 16 | 1018.1 |
| 20260508185600 | 82 | 316 | 5.2 | 12.2 | 0.00 | 0.00 | 0.00 | 16 | 1018.1 |
| 20260508185055 | 82 | 306 | 6.1 | 12.2 | 0.00 | 0.00 | 0.00 | 15 | 1018.2 |
| 20260508184553 | 81 | 1 | 7.8 | 12.2 | 0.00 | 0.00 | 0.00 | 15 | 1018.1 |
| 20260508184054 | 81 | 288 | 1.7 | 10.4 | 0.00 | 0.00 | 0.00 | 16 | 1018.1 |
| 20260508183554 | 81 | 0 | 2.6 | 10.4 | 0.00 | 0.00 | 0.00 | 16 | 1018.2 |
| 20260508183056 | 81 | 315 | 4.3 | 10.4 | 0.00 | 0.00 | 0.00 | 15 | 1018.2 |
| 20260508182555 | 81 | 0 | 3.5 | 9.6 | 0.00 | 0.00 | 0.00 | 16 | 1018.2 |
| 20260508182054 | 80 | 316 | 4.3 | 11.3 | 0.00 | 0.00 | 0.00 | 16 | 1018.2 |
| 20260508181602 | 81 | 354 | 4.3 | 11.3 | 0.00 | 0.00 | 0.00 | 17 | 1018.3 |
| 20260508181056 | 80 | 282 | 4.3 | 11.3 | 0.00 | 0.00 | 0.00 | 15 | 1018.3 |
| 20260508180554 | 80 | 312 | 5.2 | 11.3 | 0.00 | 0.00 | 0.00 | 19 | 1018.4 |
| 20260508180056 | 80 | 277 | 4.3 | 10.4 | 0.00 | 0.00 | 0.00 | 17 | 1018.5 |
| 20260508175555 | 79 | 359 | 4.3 | 10.4 | 0.00 | 0.00 | 0.00 | 18 | 1018.4 |
| 20260508175056 | 79 | 1 | 4.3 | 10.4 | 0.00 | 0.00 | 0.00 | 18 | 1018.5 |
| 20260508174606 | 79 | 359 | 1.7 | 10.4 | 0.00 | 0.00 | 0.00 | 20 | 1018.6 |
| 20260508174055 | 78 | 0 | 5.2 | 10.4 | 0.00 | 0.00 | 0.00 | 18 | 1018.5 |
| 20260508173556 | 78 | 356 | 3.5 | 10.4 | 0.00 | 0.00 | 0.00 | 21 | 1018.6 |
| 20260508173059 | 78 | 354 | 6.1 | 10.4 | 0.00 | 0.00 | 0.00 | 20 | 1018.5 |
| 20260508172556 | 78 | 10 | 5.2 | 13.9 | 0.00 | 0.00 | 0.00 | 18 | 1018.4 |
| 20260508172055 | 78 | 1 | 4.3 | 13.9 | 0.00 | 0.00 | 0.00 | 19 | 1018.6 |
| 20260508171554 | 78 | 309 | 7.0 | 13.9 | 0.00 | 0.00 | 0.00 | 18 | 1018.7 |
| 20260508171054 | 78 | 359 | 3.5 | 9.6 | 0.00 | 0.00 | 0.00 | 18 | 1018.8 |
| 20260508170555 | 77 | 1 | 4.3 | 10.4 | 0.00 | 0.00 | 0.00 | 19 | 1018.8 |
| 20260508170055 | 77 | 342 | 5.2 | 10.4 | 0.00 | 0.00 | 0.00 | 21 | 1018.8 |
| 20260508165554 | 77 | 7 | 1.7 | 9.6 | 0.00 | 0.00 | 0.00 | 22 | 1018.8 |
| 20260508165054 | 76 | 20 | 5.2 | 10.4 | 0.00 | 0.00 | 0.00 | 23 | 1019.0 |
| 20260508164553 | 75 | 326 | 6.1 | 13.0 | 0.00 | 0.00 | 0.00 | 21 | 1019.1 |
| 20260508164055 | 76 | 359 | 4.3 | 13.0 | 0.00 | 0.00 | 0.00 | 23 | 1019.0 |
| 20260508163554 | 75 | 318 | 5.2 | 11.3 | 0.00 | 0.00 | 0.00 | 22 | 1019.1 |
| 20260508163055 | 75 | 4 | 4.3 | 8.7 | 0.00 | 0.00 | 0.00 | 22 | 1019.1 |
| 20260508162553 | 75 | 332 | 2.6 | 8.7 | 0.00 | 0.00 | 0.00 | 23 | 1019.1 |
| 20260508162053 | 74 | 0 | 4.3 | 8.7 | 0.00 | 0.00 | 0.00 | 24 | 1019.1 |
| 20260508161555 | 73 | 350 | 0.0 | 6.1 | 0.00 | 0.00 | 0.00 | 29 | 1019.1 |
| 20260508161055 | 73 | 0 | 1.7 | 6.1 | 0.00 | 0.00 | 0.00 | 29 | 1019.1 |